ENY3732 KDFW-KMCI

Flight info

Callsign ENY3732
Flight time 1h 12m
Altitude 33000
Route BLECO8 TUL STASN WUTNG3
Aircraft E75L/M-SDE3GILORVW/S

Departure

Time 2026-05-04 02:30
Airport Dallas Fort Worth International Airport (KDFW)

Arrival

Time 2026-05-04 03:43
Airport Kansas City International Airport (KMCI)
Time Latitude Longitude Altitude Speed Heading
2026-05-04 02:05 32.90740 -97.04402 594 ft 0 kts 166°
2026-05-04 02:20 32.90746 -97.04404 594 ft 4 kts 168°
2026-05-04 02:20 32.90772 -97.04406 594 ft 4 kts 191°
2026-05-04 02:20 32.90794 -97.04392 594 ft 4 kts 240°
2026-05-04 02:21 32.90797 -97.04386 594 ft 0 kts 249°
2026-05-04 02:24 32.90796 -97.04388 594 ft 1 kts 249°
2026-05-04 02:24 32.90790 -97.04405 594 ft 3 kts 249°
2026-05-04 02:24 32.90785 -97.04439 594 ft 5 kts 270°
2026-05-04 02:25 32.90790 -97.04468 594 ft 6 kts 286°
2026-05-04 02:25 32.90798 -97.04519 594 ft 8 kts 271°
2026-05-04 02:26 32.90809 -97.04547 594 ft 4 kts 334°
2026-05-04 02:26 32.90847 -97.04549 594 ft 9 kts
2026-05-04 02:26 32.90902 -97.04564 595 ft 6 kts 302°
2026-05-04 02:26 32.90909 -97.04634 596 ft 17 kts 270°
2026-05-04 02:27 32.90909 -97.04657 597 ft 17 kts 270°
2026-05-04 02:27 32.90909 -97.04797 602 ft 16 kts 270°
2026-05-04 02:27 32.90925 -97.04880 617 ft 5 kts 341°
2026-05-04 02:27 32.91020 -97.04880 614 ft 23 kts
2026-05-04 02:28 32.91217 -97.04878 615 ft 30 kts
2026-05-04 02:28 32.91354 -97.04878 614 ft 15 kts
2026-05-04 02:28 32.91414 -97.04910 612 ft 8 kts 296°
2026-05-04 02:28 32.91419 -97.04975 613 ft 9 kts 270°
2026-05-04 02:29 32.91416 -97.05054 611 ft 10 kts 245°
2026-05-04 02:29 32.91374 -97.05075 614 ft 0 kts 182°
2026-05-04 02:29 32.91363 -97.05075 615 ft 3 kts 181°
2026-05-04 02:29 32.91352 -97.05075 618 ft 4 kts 180°
2026-05-04 02:30 32.91228 -97.05076 614 ft 49 kts 180°
2026-05-04 02:30 32.90624 -97.05079 599 ft 123 kts 180°
2026-05-04 02:30 32.89589 -97.05079 850 ft 162 kts 180°
2026-05-04 02:30 32.88465 -97.05057 1769 ft 160 kts 180°
2026-05-04 02:31 32.87331 -97.05077 2536 ft 170 kts 183°
2026-05-04 02:31 32.86145 -97.05266 3154 ft 186 kts 191°
2026-05-04 02:31 32.84808 -97.05647 3774 ft 207 kts 196°
2026-05-04 02:31 32.83387 -97.06157 4236 ft 233 kts 198°
2026-05-04 02:32 32.81817 -97.06740 5153 ft 239 kts 198°
2026-05-04 02:32 32.80207 -97.07301 6035 ft 245 kts 198°
2026-05-04 02:32 32.78654 -97.08050 6901 ft 248 kts 215°
2026-05-04 02:32 32.77534 -97.09559 7640 ft 254 kts 242°
2026-05-04 02:33 32.77051 -97.11491 8373 ft 259 kts 257°
2026-05-04 02:33 32.76706 -97.13624 9142 ft 264 kts 260°
2026-05-04 02:33 32.76568 -97.15858 9676 ft 278 kts 270°
2026-05-04 02:33 32.76740 -97.18181 10222 ft 289 kts 275°
2026-05-04 02:34 32.76963 -97.20603 10303 ft 313 kts 275°
2026-05-04 02:34 32.77547 -97.23142 10412 ft 337 kts 295°
2026-05-04 02:34 32.79049 -97.25292 10970 ft 345 kts 321°
2026-05-04 02:34 32.81196 -97.26500 11640 ft 351 kts 344°
2026-05-04 02:35 32.83565 -97.27041 12367 ft 352 kts 349°
2026-05-04 02:35 32.85974 -97.27323 13010 ft 358 kts 355°
2026-05-04 02:35 32.88520 -97.27417 13694 ft 362 kts 356°
2026-05-04 02:35 32.90972 -97.27416 14330 ft 366 kts 358°
2026-05-04 02:36 32.93519 -97.27340 15025 ft 369 kts 359°
2026-05-04 02:36 32.96083 -97.27206 15729 ft 371 kts
2026-05-04 02:36 32.98685 -97.27046 16386 ft 375 kts
2026-05-04 02:36 33.01264 -97.26593 16989 ft 381 kts 11°
2026-05-04 02:37 33.02920 -97.26058 17399 ft 384 kts 13°
2026-05-04 02:37 33.05542 -97.25203 18035 ft 387 kts 12°
2026-05-04 02:37 33.08152 -97.24364 18624 ft 390 kts 12°
2026-05-04 02:37 33.10259 -97.23663 19080 ft 392 kts 12°
2026-05-04 02:38 33.12901 -97.22818 19604 ft 394 kts 11°
2026-05-04 02:38 33.15568 -97.21984 20193 ft 397 kts 11°
2026-05-04 02:38 33.18244 -97.21186 20803 ft 399 kts 10°
2026-05-04 02:38 33.20957 -97.20391 21433 ft 402 kts
2026-05-04 02:39 33.23681 -97.19590 22009 ft 405 kts
2026-05-04 02:39 33.26437 -97.18771 22574 ft 408 kts
2026-05-04 02:39 33.29170 -97.17958 23103 ft 411 kts
2026-05-04 02:39 33.31906 -97.17142 23610 ft 414 kts
2026-05-04 02:40 33.34690 -97.16311 24068 ft 415 kts
2026-05-04 02:40 33.37478 -97.15478 24529 ft 417 kts
2026-05-04 02:40 33.40233 -97.14655 24997 ft 418 kts
2026-05-04 02:40 33.43028 -97.13820 25469 ft 420 kts
2026-05-04 02:41 33.45811 -97.12986 26070 ft 417 kts
2026-05-04 02:41 33.48609 -97.12145 26789 ft 413 kts
2026-05-04 02:41 33.51405 -97.11309 27253 ft 415 kts
2026-05-04 02:41 33.54227 -97.10467 27635 ft 418 kts
2026-05-04 02:42 33.57048 -97.09624 28005 ft 421 kts
2026-05-04 02:42 33.59866 -97.08778 28425 ft 423 kts
2026-05-04 02:42 33.62726 -97.07918 28820 ft 424 kts
2026-05-04 02:42 33.65593 -97.07057 29233 ft 424 kts
2026-05-04 02:43 33.68457 -97.06191 29830 ft 420 kts
2026-05-04 02:43 33.71308 -97.05334 30074 ft 425 kts
2026-05-04 02:43 33.74179 -97.04473 30350 ft 427 kts
2026-05-04 02:43 33.76998 -97.03624 30689 ft 427 kts
2026-05-04 02:44 33.79882 -97.02753 31087 ft 426 kts
2026-05-04 02:44 33.82756 -97.01883 31487 ft 425 kts
2026-05-04 02:44 33.85616 -97.01019 31880 ft 423 kts
2026-05-04 02:44 33.88474 -97.00155 32236 ft 423 kts
2026-05-04 02:45 33.91293 -96.99303 32591 ft 422 kts
2026-05-04 02:45 33.94131 -96.98443 32935 ft 420 kts
2026-05-04 02:45 33.99869 -96.96713 33061 ft 427 kts
2026-05-04 02:46 34.05642 -96.94961 33083 ft 428 kts
2026-05-04 02:46 34.11404 -96.93210 33011 ft 426 kts
2026-05-04 02:47 34.17042 -96.91495 33025 ft 427 kts
2026-05-04 02:47 34.22705 -96.89773 33018 ft 427 kts
2026-05-04 02:48 34.28505 -96.88004 33060 ft 427 kts
2026-05-04 02:48 34.34132 -96.86286 33022 ft 428 kts
2026-05-04 02:49 34.39886 -96.84532 33021 ft 428 kts
2026-05-04 02:49 34.45603 -96.82778 33010 ft 427 kts
2026-05-04 02:50 34.51250 -96.81046 33014 ft 427 kts
2026-05-04 02:50 34.56954 -96.79297 32994 ft 428 kts
2026-05-04 02:51 34.62697 -96.77530 33013 ft 427 kts
2026-05-04 02:51 34.68375 -96.75781 33017 ft 427 kts
2026-05-04 02:52 34.74130 -96.74007 33021 ft 427 kts
2026-05-04 02:52 34.79877 -96.72233 33020 ft 427 kts
2026-05-04 02:53 34.85548 -96.70481 33018 ft 429 kts
2026-05-04 02:53 34.91301 -96.68699 33020 ft 429 kts
2026-05-04 02:54 34.97023 -96.66924 33013 ft 428 kts
2026-05-04 02:54 35.02811 -96.65127 33007 ft 428 kts
2026-05-04 02:55 35.11407 -96.62454 32996 ft 430 kts
2026-05-04 02:56 35.17175 -96.60655 32996 ft 430 kts
2026-05-04 02:56 35.22904 -96.58867 32988 ft 430 kts
2026-05-04 02:57 35.28649 -96.57072 32995 ft 430 kts
2026-05-04 02:57 35.34330 -96.55295 32962 ft 433 kts
2026-05-04 02:58 35.40088 -96.53489 32975 ft 432 kts
2026-05-04 02:58 35.45766 -96.51705 32975 ft 432 kts
2026-05-04 02:59 35.51558 -96.49884 32973 ft 432 kts
2026-05-04 02:59 35.57344 -96.48062 32974 ft 432 kts
2026-05-04 03:00 35.63094 -96.46249 32979 ft 434 kts
2026-05-04 03:00 35.68945 -96.44398 32964 ft 433 kts
2026-05-04 03:01 35.74776 -96.42556 32965 ft 434 kts
2026-05-04 03:01 35.80431 -96.40766 32961 ft 434 kts
2026-05-04 03:02 35.86172 -96.38944 32964 ft 434 kts
2026-05-04 03:02 35.91980 -96.37099 32957 ft 434 kts
2026-05-04 03:03 35.97797 -96.35247 32957 ft 433 kts
2026-05-04 03:03 36.03603 -96.33397 32958 ft 434 kts
2026-05-04 03:04 36.09416 -96.31543 32956 ft 435 kts
2026-05-04 03:04 36.15278 -96.29669 32946 ft 435 kts
2026-05-04 03:05 36.21057 -96.27819 32937 ft 435 kts
2026-05-04 03:05 36.26779 -96.25985 32939 ft 435 kts
2026-05-04 03:06 36.32647 -96.24101 32929 ft 435 kts
2026-05-04 03:06 36.38457 -96.22233 32937 ft 436 kts
2026-05-04 03:07 36.44339 -96.20337 32922 ft 437 kts
2026-05-04 03:07 36.50193 -96.18448 32916 ft 437 kts
2026-05-04 03:08 36.56038 -96.16564 32917 ft 437 kts
2026-05-04 03:08 36.61897 -96.14669 32924 ft 438 kts
2026-05-04 03:09 36.66772 -96.13084 32926 ft 437 kts
2026-05-04 03:09 36.73543 -96.10885 32936 ft 438 kts
2026-05-04 03:10 36.78432 -96.09296 32934 ft 438 kts
2026-05-04 03:10 36.84284 -96.07395 32959 ft 438 kts
2026-05-04 03:11 36.90133 -96.05484 32921 ft 440 kts
2026-05-04 03:11 36.96006 -96.03569 32922 ft 439 kts
2026-05-04 03:12 37.01829 -96.01661 32899 ft 439 kts
2026-05-04 03:12 37.07740 -95.99722 32897 ft 439 kts
2026-05-04 03:13 37.13648 -95.97783 32894 ft 439 kts
2026-05-04 03:13 37.19564 -95.95839 32899 ft 439 kts
2026-05-04 03:14 37.25465 -95.93901 32886 ft 439 kts
2026-05-04 03:14 37.31332 -95.91959 32842 ft 426 kts
2026-05-04 03:14 37.34136 -95.91019 32811 ft 409 kts
2026-05-04 03:15 37.36846 -95.90117 32867 ft 397 kts
2026-05-04 03:15 37.42205 -95.88363 32912 ft 403 kts
2026-05-04 03:16 37.47639 -95.86567 32855 ft 404 kts
2026-05-04 03:16 37.53067 -95.84765 32864 ft 403 kts
2026-05-04 03:16 37.55785 -95.83863 32763 ft 405 kts
2026-05-04 03:17 37.58518 -95.82957 32380 ft 406 kts
2026-05-04 03:17 37.61237 -95.82049 31963 ft 402 kts
2026-05-04 03:17 37.63929 -95.81150 31552 ft 399 kts
2026-05-04 03:17 37.66618 -95.80256 31141 ft 399 kts
2026-05-04 03:18 37.69301 -95.79364 30752 ft 399 kts
2026-05-04 03:18 37.71996 -95.78466 30367 ft 400 kts
2026-05-04 03:18 37.74692 -95.77567 29971 ft 401 kts
2026-05-04 03:18 37.77384 -95.76668 29530 ft 401 kts
2026-05-04 03:19 37.80093 -95.75764 29085 ft 403 kts
2026-05-04 03:19 37.82753 -95.74875 28662 ft 404 kts
2026-05-04 03:19 37.85465 -95.73967 28245 ft 405 kts
2026-05-04 03:19 37.88198 -95.73051 27801 ft 407 kts
2026-05-04 03:20 37.90892 -95.72148 27385 ft 408 kts
2026-05-04 03:20 37.93601 -95.71239 26984 ft 409 kts
2026-05-04 03:20 37.96361 -95.70312 26578 ft 412 kts
2026-05-04 03:20 37.99135 -95.69380 26185 ft 413 kts
2026-05-04 03:21 38.01918 -95.68445 25799 ft 414 kts
2026-05-04 03:21 38.04711 -95.67505 25400 ft 416 kts
2026-05-04 03:21 38.07469 -95.66576 25013 ft 418 kts
2026-05-04 03:21 38.10257 -95.65635 24653 ft 416 kts
2026-05-04 03:22 38.12862 -95.64755 24315 ft 414 kts
2026-05-04 03:22 38.15630 -95.63822 23932 ft 412 kts
2026-05-04 03:22 38.18331 -95.62908 23581 ft 410 kts
2026-05-04 03:22 38.21057 -95.61986 23154 ft 408 kts
2026-05-04 03:23 38.23781 -95.61062 22717 ft 406 kts
2026-05-04 03:23 38.26501 -95.60141 22276 ft 403 kts
2026-05-04 03:23 38.29194 -95.59228 21847 ft 401 kts
2026-05-04 03:23 38.31877 -95.58318 21432 ft 398 kts
2026-05-04 03:24 38.34550 -95.57411 21025 ft 396 kts
2026-05-04 03:24 38.37189 -95.56515 20637 ft 393 kts
2026-05-04 03:24 38.39829 -95.55618 20228 ft 391 kts
2026-05-04 03:24 38.42452 -95.54725 19831 ft 389 kts
2026-05-04 03:25 38.45056 -95.53838 19433 ft 387 kts
2026-05-04 03:25 38.47655 -95.52953 19057 ft 385 kts
2026-05-04 03:25 38.50240 -95.52073 18683 ft 383 kts
2026-05-04 03:25 38.52805 -95.51198 18325 ft 381 kts
2026-05-04 03:26 38.55349 -95.50327 17934 ft 376 kts
2026-05-04 03:26 38.57843 -95.49475 17506 ft 374 kts
2026-05-04 03:26 38.60317 -95.48631 17081 ft 373 kts
2026-05-04 03:26 38.62811 -95.47778 16666 ft 371 kts
2026-05-04 03:27 38.65303 -95.46924 16255 ft 369 kts
2026-05-04 03:27 38.67780 -95.46075 15850 ft 368 kts
2026-05-04 03:27 38.70230 -95.45235 15457 ft 366 kts
2026-05-04 03:27 38.72692 -95.44391 15068 ft 364 kts
2026-05-04 03:28 38.75126 -95.43555 14685 ft 363 kts 10°
2026-05-04 03:28 38.77535 -95.42722 14304 ft 352 kts
2026-05-04 03:28 38.79823 -95.41855 13909 ft 346 kts 16°
2026-05-04 03:28 38.81813 -95.40209 13532 ft 348 kts 37°
2026-05-04 03:29 38.83505 -95.38013 13121 ft 343 kts 43°
2026-05-04 03:29 38.85087 -95.35750 12700 ft 338 kts 44°
2026-05-04 03:29 38.86636 -95.33512 12291 ft 333 kts 44°
2026-05-04 03:29 38.88171 -95.31316 11902 ft 328 kts 44°
2026-05-04 03:30 38.89677 -95.29178 11852 ft 315 kts 44°
2026-05-04 03:30 38.91162 -95.27081 11871 ft 321 kts 44°
2026-05-04 03:30 38.92681 -95.24941 11897 ft 326 kts 44°
2026-05-04 03:30 38.94219 -95.22767 11824 ft 329 kts 44°
2026-05-04 03:31 38.95755 -95.20590 11844 ft 329 kts 44°
2026-05-04 03:31 38.97271 -95.18439 11833 ft 329 kts 44°
2026-05-04 03:31 38.98819 -95.16224 11834 ft 329 kts 46°
2026-05-04 03:31 39.00177 -95.13889 11845 ft 331 kts 53°
2026-05-04 03:32 39.01444 -95.11439 11843 ft 332 kts 53°
2026-05-04 03:32 39.02744 -95.08965 11840 ft 334 kts 52°
2026-05-04 03:32 39.04067 -95.06511 11836 ft 334 kts 52°
2026-05-04 03:32 39.05401 -95.04062 11834 ft 334 kts 52°
2026-05-04 03:33 39.06736 -95.01622 11834 ft 334 kts 52°
2026-05-04 03:33 39.08080 -94.99168 11564 ft 340 kts 52°
2026-05-04 03:33 39.09449 -94.96671 11045 ft 340 kts 52°
2026-05-04 03:33 39.10810 -94.94190 10583 ft 338 kts 53°
2026-05-04 03:34 39.12126 -94.91780 10132 ft 336 kts 53°
2026-05-04 03:34 39.13449 -94.89355 9689 ft 334 kts 54°
2026-05-04 03:34 39.14783 -94.86909 9204 ft 331 kts 54°
2026-05-04 03:34 39.16077 -94.84537 8730 ft 331 kts 54°
2026-05-04 03:35 39.17376 -94.82154 8263 ft 329 kts 54°
2026-05-04 03:35 39.18689 -94.79745 7795 ft 327 kts 55°
2026-05-04 03:35 39.19974 -94.77382 7344 ft 326 kts 55°
2026-05-04 03:35 39.20829 -94.74800 6813 ft 315 kts 95°
2026-05-04 03:36 39.20675 -94.71999 6414 ft 310 kts 99°
2026-05-04 03:36 39.20529 -94.69240 5962 ft 309 kts 98°
2026-05-04 03:36 39.20369 -94.66523 5486 ft 307 kts 99°
2026-05-04 03:36 39.20191 -94.63792 5050 ft 304 kts 99°
2026-05-04 03:37 39.20004 -94.61146 4983 ft 288 kts 99°
2026-05-04 03:37 39.19840 -94.58703 4961 ft 273 kts 99°
2026-05-04 03:37 39.19700 -94.56346 4931 ft 260 kts 96°
2026-05-04 03:37 39.19997 -94.54126 4906 ft 252 kts 65°
2026-05-04 03:38 39.21128 -94.52471 4807 ft 246 kts 32°
2026-05-04 03:38 39.22685 -94.51748 4531 ft 236 kts 10°
2026-05-04 03:38 39.24202 -94.51300 4301 ft 225 kts 11°
2026-05-04 03:38 39.25696 -94.51274 4028 ft 211 kts 339°
2026-05-04 03:39 39.26801 -94.52297 3760 ft 195 kts 303°
2026-05-04 03:39 39.27425 -94.53797 3400 ft 192 kts 282°
2026-05-04 03:39 39.27641 -94.55485 3108 ft 189 kts 276°
2026-05-04 03:39 39.27764 -94.57177 2881 ft 190 kts 275°
2026-05-04 03:40 39.27913 -94.58918 2633 ft 198 kts 276°
2026-05-04 03:40 39.28089 -94.60648 2271 ft 191 kts 277°
2026-05-04 03:40 39.28232 -94.62305 1957 ft 174 kts 277°
2026-05-04 03:40 39.28341 -94.63775 1721 ft 159 kts 278°
2026-05-04 03:41 39.28458 -94.65131 1589 ft 148 kts 279°
2026-05-04 03:41 39.28473 -94.65282 1583 ft 147 kts 280°
2026-05-04 03:41 39.28551 -94.66158 1486 ft 143 kts 276°
2026-05-04 03:42 39.28645 -94.67411 1338 ft 139 kts 276°
2026-05-04 03:42 39.28751 -94.68639 1158 ft 137 kts 276°
2026-05-04 03:42 39.28854 -94.69863 1014 ft 132 kts 276°
2026-05-04 03:42 39.28942 -94.70902 1012 ft 98 kts 276°
2026-05-04 03:43 39.29005 -94.71691 1013 ft 83 kts 276°
2026-05-04 03:43 39.29054 -94.72266 1012 ft 53 kts 276°
2026-05-04 03:43 39.29080 -94.72557 1011 ft 16 kts 277°
2026-05-04 03:43 39.29109 -94.72630 1010 ft 10 kts 332°
2026-05-04 03:44 39.29155 -94.72636 1010 ft 7 kts
2026-05-04 03:44 39.29202 -94.72646 1011 ft 7 kts 327°
2026-05-04 03:44 39.29251 -94.72679 1012 ft 9 kts 352°
2026-05-04 03:44 39.29319 -94.72664 1012 ft 11 kts 13°
2026-05-04 03:45 39.29400 -94.72640 1012 ft 13 kts 14°
2026-05-04 03:45 39.29494 -94.72610 1012 ft 15 kts 14°
2026-05-04 03:45 39.29605 -94.72577 1012 ft 17 kts 13°
2026-05-04 03:45 39.29729 -94.72541 1012 ft 19 kts 13°
2026-05-04 03:46 39.29866 -94.72501 1012 ft 21 kts 12°
2026-05-04 03:46 39.30012 -94.72457 1012 ft 20 kts 13°
2026-05-04 03:46 39.30129 -94.72423 1012 ft 17 kts 13°
2026-05-04 03:46 39.30201 -94.72402 1012 ft 10 kts 15°
2026-05-04 03:47 39.30219 -94.72347 1012 ft 12 kts 103°
2026-05-04 03:47 39.30190 -94.72190 1012 ft 20 kts 103°
2026-05-04 03:47 39.30161 -94.72022 1012 ft 18 kts 103°
2026-05-04 03:47 39.30098 -94.71910 1012 ft 10 kts 168°
2026-05-04 03:48 39.30086 -94.71907 1012 ft 0 kts 169°